| time (UTC) | temp C | wind direction | speed KPH | gust KPH | rain 1hr cm | rain 24hr cm | rain mn cm | humidity % | barometer mb |
| 20260508043025 | 16 | 209 | 0.0 | 0.0 | 0.00 | 0.00 | 0.00 | 51 | 1015.1 |
| 20260508041512 | 16 | 208 | 0.0 | 0.0 | 0.00 | 0.00 | 0.00 | 53 | 1015.2 |
| 20260508040017 | 16 | 208 | 0.0 | 0.0 | 0.00 | 0.00 | 0.00 | 54 | 1015.1 |
| 20260508034510 | 16 | 208 | 0.0 | 0.0 | 0.00 | 0.00 | 0.00 | 56 | 1014.8 |
| 20260508033058 | 16 | 208 | 0.0 | 0.0 | 0.00 | 0.00 | 0.00 | 57 | 1014.8 |
| 20260508031558 | 16 | 209 | 0.0 | 0.0 | 0.00 | 0.00 | 0.00 | 59 | 1014.5 |
| 20260508030059 | 16 | 208 | 0.0 | 0.0 | 0.00 | 0.00 | 0.00 | 59 | 1014.5 |
| 20260508024556 | 17 | 207 | 0.0 | 0.0 | 0.00 | 0.00 | 0.00 | 59 | 1014.5 |
| 20260508023046 | 17 | 208 | 0.0 | 0.0 | 0.00 | 0.00 | 0.00 | 59 | 1014.4 |
| 20260508021539 | 17 | 208 | 0.0 | 0.0 | 0.00 | 0.00 | 0.00 | 60 | 1014.4 |
| 20260508020035 | 17 | 208 | 0.0 | 0.0 | 0.00 | 0.00 | 0.00 | 60 | 1014.2 |
| 20260508014531 | 17 | 208 | 0.0 | 0.0 | 0.00 | 0.00 | 0.00 | 60 | 1014.3 |
| 20260508013026 | 18 | 208 | 0.0 | 0.0 | 0.00 | 0.00 | 0.00 | 60 | 1014.2 |
| 20260508011522 | 18 | 208 | 0.0 | 0.0 | 0.00 | 0.00 | 0.00 | 60 | 1014.2 |
| 20260508010024 | 18 | 207 | 0.0 | 0.0 | 0.00 | 0.00 | 0.00 | 60 | 1014.3 |
| 20260508004516 | 18 | 208 | 0.0 | 0.0 | 0.00 | 0.00 | 0.00 | 60 | 1014.3 |
| 20260508003011 | 19 | 208 | 0.0 | 0.0 | 0.00 | 0.00 | 0.00 | 59 | 1014.2 |
| 20260508001507 | 19 | 208 | 0.0 | 0.0 | 0.00 | 0.00 | 0.00 | 59 | 1014.4 |
| 20260508000003 | 20 | 208 | 0.0 | 0.0 | 0.00 | 0.00 | 0.00 | 58 | 1014.5 |
| 20260507234559 | 20 | 200 | 0.0 | 1.6 | 0.00 | 0.00 | 0.00 | 58 | 1014.6 |
| 20260507233054 | 20 | 246 | 0.0 | 1.6 | 0.00 | 0.00 | 0.00 | 58 | 1014.5 |
| 20260507231550 | 20 | 205 | 0.0 | 1.6 | 0.00 | 0.00 | 0.00 | 58 | 1014.5 |
| 20260507230046 | 20 | 136 | 0.0 | 0.0 | 0.00 | 0.00 | 0.00 | 57 | 1014.6 |
| 20260507224541 | 20 | 136 | 0.0 | 0.0 | 0.00 | 0.03 | 0.00 | 57 | 1014.7 |
| 20260507223037 | 21 | 96 | 0.0 | 1.6 | 0.00 | 0.03 | 0.00 | 57 | 1014.8 |
| 20260507221533 | 21 | 172 | 0.0 | 0.0 | 0.00 | 0.03 | 0.00 | 56 | 1014.8 |
| 20260507220028 | 21 | 172 | 0.0 | 0.0 | 0.00 | 0.03 | 0.00 | 54 | 1014.8 |
| 20260507214524 | 21 | 165 | 0.0 | 0.0 | 0.00 | 0.03 | 0.00 | 56 | 1014.9 |
| 20260507213021 | 21 | 165 | 0.0 | 0.0 | 0.00 | 0.03 | 0.00 | 53 | 1015.1 |
| 20260507211515 | 21 | 165 | 0.0 | 0.0 | 0.00 | 0.03 | 0.00 | 56 | 1015.5 |
| 20260507210011 | 21 | 165 | 0.0 | 0.0 | 0.00 | 0.03 | 0.00 | 55 | 1015.8 |
| 20260507204509 | 21 | 165 | 0.0 | 0.0 | 0.00 | 0.03 | 0.00 | 53 | 1015.7 |
| 20260507203002 | 21 | 165 | 0.0 | 0.0 | 0.00 | 0.03 | 0.00 | 51 | 1015.5 |
| 20260507201604 | 21 | 166 | 0.0 | 0.0 | 0.00 | 0.03 | 0.00 | 52 | 1015.5 |
| 20260507200056 | 22 | 155 | 0.0 | 0.0 | 0.00 | 0.03 | 0.00 | 51 | 1016.0 |
| 20260507194558 | 22 | 155 | 0.0 | 1.6 | 0.00 | 0.03 | 0.00 | 52 | 1016.2 |
| 20260507193045 | 22 | 6 | 0.0 | 0.0 | 0.00 | 0.03 | 0.00 | 50 | 1016.5 |
| 20260507191547 | 22 | 6 | 0.0 | 1.6 | 0.00 | 0.03 | 0.00 | 50 | 1016.9 |
| 20260507190036 | 22 | 13 | 0.0 | 3.2 | 0.00 | 0.03 | 0.00 | 48 | 1017.0 |
| 20260507184536 | 22 | 205 | 0.0 | 3.2 | 0.00 | 0.03 | 0.00 | 48 | 1017.0 |
| 20260507183035 | 22 | 18 | 0.0 | 4.8 | 0.00 | 0.03 | 0.00 | 47 | 1017.0 |
| 20260507181523 | 21 | 351 | 0.0 | 3.2 | 0.00 | 0.03 | 0.00 | 50 | 1017.2 |
| 20260507180022 | 21 | 19 | 0.0 | 4.8 | 0.00 | 0.03 | 0.00 | 50 | 1017.3 |
| 20260507174515 | 21 | 23 | 0.0 | 3.2 | 0.00 | 0.03 | 0.00 | 51 | 1017.5 |
| 20260507173010 | 20 | 13 | 0.0 | 1.6 | 0.00 | 0.03 | 0.00 | 53 | 1017.8 |
| 20260507171506 | 20 | 351 | 0.0 | 3.2 | 0.00 | 0.03 | 0.00 | 52 | 1018.2 |
| 20260507170002 | 20 | 352 | 0.0 | 1.6 | 0.00 | 0.03 | 0.00 | 53 | 1018.6 |
| 20260507164629 | 20 | 27 | 0.0 | 0.0 | 0.00 | 0.03 | 0.00 | 55 | 1019.2 |
| 20260507163053 | 18 | 5 | 0.0 | 3.2 | 0.00 | 0.03 | 0.00 | 56 | 1019.2 |
| 20260507161549 | 18 | 342 | 0.0 | 1.6 | 0.00 | 0.03 | 0.00 | 56 | 1019.3 |
| 20260507160048 | 18 | 354 | 0.0 | 1.6 | 0.00 | 0.03 | 0.00 | 56 | 1019.2 |
| 20260507154540 | 17 | 13 | 0.0 | 1.6 | 0.00 | 0.03 | 0.00 | 54 | 1019.2 |
| 20260507153035 | 17 | 16 | 0.0 | 1.6 | 0.00 | 0.03 | 0.00 | 53 | 1019.4 |
| 20260507151532 | 17 | 16 | 0.0 | 1.6 | 0.00 | 0.03 | 0.00 | 51 | 1019.5 |
| 20260507150027 | 16 | 354 | 0.0 | 1.6 | 0.00 | 0.03 | 0.00 | 50 | 1019.7 |
| 20260507144523 | 16 | 352 | 0.0 | 1.6 | 0.00 | 0.03 | 0.00 | 41 | 1019.8 |
| 20260507143032 | 15 | 8 | 0.0 | 1.6 | 0.00 | 0.03 | 0.00 | 28 | 1019.9 |
| 20260507141513 | 15 | 9 | 0.0 | 0.0 | 0.00 | 0.03 | 0.00 | 14 | 1019.9 |
| 20260507140010 | 14 | 9 | 0.0 | 1.6 | 0.00 | 0.03 | 0.00 | 1 | 1019.9 |
| 20260507134505 | 13 | 11 | 0.0 | 1.6 | 0.00 | 0.03 | 0.00 | 1 | 1020.1 |
| 20260507133110 | 13 | 64 | 0.0 | 0.0 | 0.00 | 0.03 | 0.00 | 1 | 1020.4 |
| 20260507131612 | 12 | 63 | 0.0 | 0.0 | 0.00 | 0.03 | 0.00 | 1 | 1020.4 |
| 20260507130052 | 12 | 63 | 0.0 | 0.0 | 0.00 | 0.03 | 0.00 | 1 | 1020.3 |
| 20260507124548 | 12 | 63 | 0.0 | 0.0 | 0.00 | 0.03 | 0.00 | 1 | 1020.2 |
| 20260507123055 | 12 | 64 | 0.0 | 0.0 | 0.00 | 0.03 | 0.00 | 1 | 1019.9 |
| 20260507121543 | 11 | 63 | 0.0 | 0.0 | 0.00 | 0.03 | 0.00 | 1 | 1019.9 |
| 20260507120035 | 11 | 65 | 0.0 | 0.0 | 0.00 | 0.03 | 0.00 | 1 | 1019.5 |
| 20260507114531 | 11 | 13 | 0.0 | 0.0 | 0.00 | 0.03 | 0.00 | 1 | 1020.1 |
| 20260507113026 | 11 | 13 | 0.0 | 0.0 | 0.00 | 0.03 | 0.00 | 1 | 1019.6 |
| 20260507111522 | 11 | 13 | 0.0 | 0.0 | 0.00 | 0.03 | 0.00 | 1 | 1019.3 |
| 20260507110021 | 11 | 13 | 0.0 | 0.0 | 0.00 | 0.03 | 0.00 | 1 | 1019.3 |
| 20260507104513 | 11 | 13 | 0.0 | 0.0 | 0.00 | 0.03 | 0.00 | 1 | 1019.1 |
| 20260507103009 | 11 | 13 | 0.0 | 0.0 | 0.00 | 0.03 | 0.00 | 1 | 1018.7 |
| 20260507101506 | 11 | 13 | 0.0 | 0.0 | 0.00 | 0.03 | 0.00 | 1 | 1018.5 |
| 20260507094557 | 12 | 13 | 0.0 | 0.0 | 0.00 | 0.03 | 0.00 | 8 | 1017.9 |
| 20260507093051 | 12 | 13 | 0.0 | 0.0 | 0.00 | 0.03 | 0.00 | 6 | 1017.8 |
| 20260507091547 | 12 | 13 | 0.0 | 0.0 | 0.00 | 0.03 | 0.00 | 12 | 1017.7 |
| 20260507090056 | 13 | 13 | 0.0 | 0.0 | 0.00 | 0.03 | 0.00 | 16 | 1017.4 |
| 20260507084551 | 13 | 13 | 0.0 | 1.6 | 0.00 | 0.03 | 0.00 | 15 | 1017.2 |
| 20260507083043 | 13 | 13 | 0.0 | 0.0 | 0.00 | 0.03 | 0.00 | 16 | 1017.3 |
| 20260507081551 | 13 | 13 | 0.0 | 0.0 | 0.00 | 0.03 | 0.00 | 16 | 1017.5 |
| 20260507080039 | 13 | 13 | 0.0 | 1.6 | 0.00 | 0.03 | 0.00 | 17 | 1017.4 |
| 20260507074538 | 13 | 13 | 0.0 | 1.6 | 0.00 | 0.03 | 0.00 | 20 | 1017.2 |
| 20260507073034 | 13 | 15 | 0.0 | 0.0 | 0.00 | 0.03 | 0.00 | 26 | 1017.1 |
| 20260507071535 | 14 | 15 | 0.0 | 1.6 | 0.00 | 0.03 | 0.00 | 31 | 1016.5 |
| 20260507070034 | 14 | 15 | 0.0 | 1.6 | 0.00 | 0.03 | 0.00 | 32 | 1016.6 |
| 20260507064552 | 14 | 22 | 0.0 | 0.0 | 0.00 | 0.03 | 0.00 | 29 | 1016.6 |
| 20260507063133 | 14 | 148 | 0.0 | 1.6 | 0.00 | 0.03 | 0.00 | 30 | 1016.7 |
| 20260507061529 | 14 | 150 | 0.0 | 1.6 | 0.00 | 0.03 | 0.00 | 30 | 1016.6 |
| 20260507060028 | 15 | 6 | 0.0 | 1.6 | 0.00 | 0.03 | 0.00 | 36 | 1016.5 |
| 20260507054521 | 15 | 5 | 0.0 | 1.6 | 0.00 | 0.03 | 0.00 | 42 | 1016.5 |
| 20260507053020 | 15 | 21 | 0.0 | 1.6 | 0.00 | 0.03 | 0.00 | 46 | 1016.5 |
| 20260507051517 | 15 | 11 | 0.0 | 1.6 | 0.00 | 0.03 | 0.00 | 47 | 1016.6 |
| 20260507050032 | 15 | 12 | 0.0 | 1.6 | 0.00 | 0.03 | 0.00 | 46 | 1016.5 |
| 20260507044515 | 15 | 9 | 0.0 | 1.6 | 0.00 | 0.03 | 0.03 | 47 | 1016.5 |